sat.trackr.live / text

‹ back to catalog

STARLINK-37174

NORAD 68767 · 2026-086B

PAYLOAD ACTIVE UNKNOWN

§ Identity

Operator
Country
US
Launch date
2026-04-19
Launch site
AFWTR
Launch vehicle
Mass (kg)
RCS (m²)

Purposes: comms

External: N2YO · Heavens-Above · Gunter

§ Orbital elements

Epoch: 2026-05-25T04:00:03.998880Z

Period
91.92 min
Inclination
97.2846°
Eccentricity
0.0001343
Mean motion
15.66510257 rev/d
Perigee alt
368.0 km
Apogee alt
369.8 km
Semi-major
6,747.0 km
B*
-2.0877e-2
RAAN
182.0095°
Arg perigee
87.4092°
Mean anomaly
223.1634°
Rev number
606

§ Raw data

STARLINK-371741 68767U 26086B   26145.16671295 -.01922364  00000+0 -20877-1 0  99942 68767  97.2846 182.0095 0001343  87.4092 223.1634 15.66510257  6069

JSON: /api/v1/satellites/68767 · /tle

For live sub-satellite position, see the globe view (requires WebGL).

§ Visibility from observer

Set your observer location to see the next 7 days of passes ≥ 10°. The values pass through the URL so the page stays shareable.

No JS? Fill the form by hand. The geolocation button needs JavaScript.